JD 3

Satellite information

Favourite Embed

Satellite Type and Status

PAYLOADIN ORBIT

Key statistics

Satellite JD 3 at a glance.

Uptime

15235

Days in orbit

Revolutions

≈ 13.9

Per day

Orbit

LEO

Low Earth Orbit

Inclination

63.3

Latest

Satellite identification and parameters

Extended collection of information and parameters for JD 3.

Object identification

Identified? True

Debris? False

Object name: JD 3

International designator: 1984-012F

Object number (NORAD): 14795

Object ID (CCSDS): 14795

Country: UNITED STATES OF AMERICA (US)

Current information (Y/N): Y

RCS size: LARGE

Orbital parameters

Period: 103.847 minutes

Inclination: 63.2984 deg

SMA: 7318.493 km

Apoapsis: 1488.223 km

Periapsis: 392.493 km

RAAN: 272.0944 deg

Eccentricy: 0.07486033

Argument of periapsis: 122.2901 deg

Mean anomaly: 245.2921 deg

Mean motion: 13.86660886 rev/day

Mean motion (dot): 0.00007114 rev/day2

B* drag term: 0.00056873506 1/REarth

Two-line elements (TLE)

Creation date: Oct. 21, 2025, 3:26 a.m.

Reference frame: TEME

Reference center: EARTH

Epoch: Oct. 20, 2025, 9:37 p.m. UTC

TLE line 0: 0 JD 3

TLE line 1: 1 14795U 84012F 25293.90083904 .00007114 00000-0 56874-3 0 9991

TLE line 2: 2 14795 63.2984 272.0944 0748603 122.2901 245.2921 13.86660886321444

Live tracking on map

Real-time ground track for satellite JD 3.

In-orbit conjunctions

A list of the most updated potential collisions computed for object JD 3.

Target Orbit TCA Probability of collision Miss distance Type
SL-14 R/B LEO 2025-06-23 07:14:48 0.002087368 164.0 (m) ROCKET BODY
FENGYUN 1C DEB SSO 2025-01-30 11:17:29 0.000106674 918.0 (m) DEBRIS

Associated space launch

The Parcae satellites were passive ELINT satellites. MSD satellites were dispensers of triplets of ocean surveillance satellites.

JD 3 was lifted into orbit during the mission ‘Atlas H | Parcae 7A,B,C & MSD 7’, on board a Atlas H space rocket.

The launch took place on Feb. 5, 1984, 6:44 p.m. from Space Launch Complex 3E.

For more information about the launch, click the button.

Launch to space Atlas H | Parcae 7A,B,C & MSD 7
Atlas H | Parcae 7A,B,C & MSD 7

Agency: N/A

Status: Launch Successful

Launch date: Feb. 5, 1984, 6:44 p.m. UTC

Rocket: Atlas H

Launch pad: Space Launch Complex 3E

Location: Vandenberg SFB, CA, USA

...

Latest news about this satellite

There are no fresh news available about this satellite. Check back as we update our databases every day.


Newsletter sign-up

Weekly statistics, charts and insights to help you stay on top of the space industry.